TimeCST,TemperatureF,Dew PointF,Humidity,Sea Level PressureIn,VisibilityMPH,Wind Direction,Wind SpeedMPH,Gust SpeedMPH,PrecipitationIn,Events,Conditions,WindDirDegrees,DateUTC
12:53 AM,66.0,64.0,93,30.16,10.0,North,6.9,-,N/A,,Mostly Cloudy,10,2012-12-05 06:53:00
1:06 AM,66.2,64.4,94,30.14,10.0,North,8.1,-,N/A,,Mostly Cloudy,10,2012-12-05 07:06:00
1:53 AM,66.9,63.0,87,30.16,10.0,NNE,9.2,-,N/A,,Overcast,20,2012-12-05 07:53:00
2:53 AM,66.0,61.0,84,30.16,10.0,North,9.2,-,N/A,,Overcast,10,2012-12-05 08:53:00
3:53 AM,64.0,57.0,78,30.16,10.0,NNE,11.5,-,N/A,,Clear,20,2012-12-05 09:53:00
4:53 AM,62.1,55.0,78,30.16,10.0,North,6.9,-,N/A,,Clear,10,2012-12-05 10:53:00
5:53 AM,60.1,52.0,75,30.18,10.0,North,9.2,-,N/A,,Clear,350,2012-12-05 11:53:00
6:53 AM,57.9,48.9,72,30.19,10.0,North,11.5,-,N/A,,Clear,350,2012-12-05 12:53:00
8:53 AM,60.1,46.0,60,30.21,10.0,North,12.7,-,N/A,,Clear,10,2012-12-05 14:53:00
9:53 AM,63.0,48.0,58,30.22,10.0,North,9.2,-,N/A,,Clear,10,2012-12-05 15:53:00
10:53 AM,66.0,50.0,56,30.21,10.0,NNW,6.9,-,N/A,,Clear,340,2012-12-05 16:53:00
11:53 AM,70.0,51.1,51,30.18,10.0,NNW,4.6,-,N/A,,Clear,340,2012-12-05 17:53:00
12:53 PM,72.0,51.1,48,30.14,10.0,Variable,5.8,-,N/A,,Clear,0,2012-12-05 18:53:00
1:53 PM,73.9,53.1,48,30.10,10.0,NNE,4.6,-,N/A,,Clear,30,2012-12-05 19:53:00
2:53 PM,73.9,55.0,52,30.07,10.0,Variable,4.6,-,N/A,,Clear,0,2012-12-05 20:53:00
3:53 PM,72.0,57.0,59,30.07,10.0,ESE,5.8,-,N/A,,Clear,120,2012-12-05 21:53:00
4:53 PM,70.0,60.1,71,30.06,10.0,East,8.1,-,N/A,,Clear,90,2012-12-05 22:53:00
6:53 PM,68.0,59.0,73,30.06,10.0,ENE,9.2,-,N/A,,Clear,60,2012-12-06 00:53:00
7:53 PM,66.9,59.0,76,30.07,10.0,East,10.4,-,N/A,,Clear,90,2012-12-06 01:53:00
8:53 PM,66.0,60.1,81,30.09,10.0,East,8.1,-,N/A,,Clear,100,2012-12-06 02:53:00
9:53 PM,64.9,60.1,84,30.07,10.0,East,11.5,-,N/A,,Clear,90,2012-12-06 03:53:00
10:53 PM,64.9,61.0,87,30.06,8.0,East,8.1,-,N/A,,Clear,100,2012-12-06 04:53:00
11:53 PM,64.0,62.1,93,30.06,7.0,East,5.8,-,N/A,,Clear,80,2012-12-06 05:53:00